Regional Weather Roundup
Issued by NWS

Home | Current Version | Previous Version | Graphics & Text | Print | Product List | Glossary On
Versions: 1 2 3 4 5 6 7 8 9 10 11 12 13 14 15 16 17 18 19 20 21 22 23 24 25 26 27 28 29 30 31 32 33 34 35 36 37 38 39 40 41 42 43 44 45 46 47 48 49 50
000
ASUS43 KOAX 062310
RWRNE

WEATHER ROUNDUP FOR NEBRASKA
NATIONAL WEATHER SERVICE OMAHA NE
600 PM CDT WED MAY 06 2015

NOTES: SATELLITE DATA IS BEING USED TO AUGMENT CLOUD COVER ABOVE
       12000 FEET.
       "FAIR" INDICATES FEW OR NO CLOUDS BELOW 12,000 FEET WITH NO
       SIGNIFICANT WEATHER AND/OR OBSTRUCTIONS TO VISIBILITY.

  * THESE STATIONS DO NOT REPORT WEATHER SUCH AS RAIN...SNOW OR FOG.

NEZ001>004-019>022-054>056-070000-
NEBRASKA PANHANDLE

CITY           SKY/WX    TMP DP  RH WIND       PRES   REMARKS
SCOTTSBLUFF    LGT RAIN  58  55  90 N8        29.62S FOG
ALLIANCE       CLOUDY    59  53  80 S9        29.60S
CHADRON        PTSUNNY   64  53  67 W13       29.59R
KIMBALL        CLOUDY    61  49  63 N16G22    29.64R
SIDNEY         CLOUDY    58  55  90 S5        29.62S
$$

NEZ057>060-069>072-079>082-070000-
SOUTHWEST NEBRASKA

CITY           SKY/WX    TMP DP  RH WIND       PRES   REMARKS
NORTH PLATTE   MOSUNNY   66  54  65 S8        29.58S
IMPERIAL       PTSUNNY   62  54  74 S13       29.57F
LEXINGTON      CLOUDY    64  60  87 E15       29.59R
MCCOOK         CLOUDY    70  53  54 S14       29.58R
OGALLALA       CLOUDY    66  54  66 S8        29.57F
$$

NEZ005>010-023>029-035>040-094-070000-
NORTH CENTRAL NEBRASKA

CITY           SKY/WX    TMP DP  RH WIND       PRES   REMARKS
VALENTINE      LGT RAIN  60  56  86 CALM      29.61F
AINSWORTH      PTSUNNY   66  57  71 S9        29.61S
BROKEN BOW     CLOUDY    64  57  78 SE23G39   29.60S THUNDER
O`NEILL        CLOUDY    67  62  83 S23G31    29.63F
ORD            LGT RAIN  62  56  80 S15G26    29.62S
THEDFORD       CLOUDY    64  59  83 CALM      29.59F
$$

NEZ041-046>049-061>064-073>077-083>087-070000-
SOUTH CENTRAL NEBRASKA

CITY           SKY/WX    TMP DP  RH WIND       PRES   REMARKS
GRAND ISLAND   TSTM      63  60  90 SE24G39   29.61F
AURORA         TSTM      64  64 100 SE29G39   29.64F
HASTINGS       LGT RAIN  63  60  90 SE15G25   29.62F
HEBRON         TSTM      67  62  84 E7G16     29.66F
HOLDREGE       LGT RAIN  63  59  87 SE12      29.59F
YORK           TSTM      64  64 100 SE15G24   29.69F
$$

NEZ011>018-030>034-042>045-070000-
NORTHEAST NEBRASKA

CITY           SKY/WX    TMP DP  RH WIND       PRES   REMARKS
NORFOLK        PTSUNNY   68  61  78 SE22G32   29.68F
ALBION         RAIN      64  61  91 S18G26    29.66F
BLAIR          CLOUDY    69  60  73 SE21G31   29.77S
COLUMBUS *     PTSUNNY   66  59  77 SE17G29   29.71F
FREMONT        CLOUDY    70  61  73 SE18G24   29.74S
TEKAMAH        CLOUDY    70  62  76 SE22      29.76S
WAYNE          CLOUDY    68  62  80 S28G33    29.72S
$$

NEZ050>053-065>068-078-088>093-070000-
SOUTHEAST NEBRASKA

CITY           SKY/WX    TMP DP  RH WIND       PRES   REMARKS
LINCOLN        CLOUDY    70  62  76 S22G35    29.73S
OMAHA EPPLEY   PTSUNNY   71  62  73 SE21G29   29.77F
BEATRICE       CLOUDY    68  62  81 SE18G29   29.73S
FALLS CITY     CLOUDY    70  59  68 SE24G35   29.79F
NEBRASKA CITY  CLOUDY    69  58  67 S22G29    29.80S
PLATTSMOUTH    CLOUDY    70  59  68 S21G31    29.78S
$$

NEZ044-045-051>053-067-070000-
OMAHA AREA

CITY           SKY/WX    TMP DP  RH WIND       PRES   REMARKS
OMAHA EPPLEY   PTSUNNY   71  62  73 SE21G29   29.77F
BLAIR          CLOUDY    69  60  73 SE21G31   29.77S
FREMONT        CLOUDY    70  61  73 SE18G24   29.74S
MILLARD        CLOUDY    71  63  76 SE20G25   29.76S
OFFUTT AFB     PTSUNNY   71  62  72 SE22G32   29.77S
PLATTSMOUTH    CLOUDY    70  59  68 S21G31    29.78S
WAHOO          CLOUDY    69  60  72 SE20G32   29.74S
$$



USA.gov is the U.S. government's official web portal to all federal, state and local government web resources and services.